• In Deutschland
  • Länderverzeichnis
  • Für 7 Tage
  • Wassertemperatur
  • Satellitenkarten
  • Wetterkarte
  • Widgets
  • user-avatar
    Anmelden

    Stündliche Wetter Oran

    Heute, 17 Januar, Mittwoch

    Zeit Temperatur Niederschläge Wind Luftdruck Luftfeuchtigkeit
    00:00 +11°C° 0 mm 3 m/S 758 mmHg 63%
    01:00 +11°C° 0 mm 3 m/S 758 mmHg 63%
    02:00 +10°C° 0 mm 3 m/S 757 mmHg 63%
    03:00 +10°C° 0 mm 3 m/S 757 mmHg 62%
    04:00 +10°C° 0 mm 3 m/S 757 mmHg 61%
    05:00 +10°C° 0 mm 2 m/S 757 mmHg 60%
    06:00 +9°C° 0 mm 2 m/S 757 mmHg 59%
    07:00 +12°C° 0 mm 2 m/S 757 mmHg 54%
    08:00 +14°C° 0 mm 2 m/S 757 mmHg 49%
    09:00 +16°C° 0 mm 1 m/S 757 mmHg 43%
    10:00 +19°C° 0 mm 1 m/S 757 mmHg 38%
    11:00 +20°C° 0 mm 1 m/S 757 mmHg 33%
    12:00 +19°C° 0 mm 0 m/S 757 mmHg 28%
    13:00 +22°C° 0 mm 1 m/S 757 mmHg 28%
    14:00 +21°C° 0 mm 2 m/S 756 mmHg 28%
    15:00 +21°C° 0 mm 3 m/S 756 mmHg 29%
    16:00 +19°C° 0 mm 3 m/S 756 mmHg 35%
    17:00 +17°C° 0 mm 3 m/S 756 mmHg 40%
    18:00 +16°C° 0 mm 3 m/S 756 mmHg 46%
    19:00 +14°C° 0 mm 3 m/S 756 mmHg 48%
    20:00 +13°C° 0 mm 3 m/S 756 mmHg 49%
    21:00 +13°C° 0 mm 3 m/S 757 mmHg 51%
    22:00 +13°C° 0 mm 4 m/S 757 mmHg 52%
    23:00 +12°C° 0 mm 4 m/S 757 mmHg 54%

    Morgen, 18 Januar, Donnerstag

    Zeit Temperatur Niederschläge Wind Luftdruck Luftfeuchtigkeit
    00:00 +12°C° 0 mm 4 m/S 756 mmHg 55%
    01:00 +12°C° 0 mm 4 m/S 756 mmHg 56%
    02:00 +11°C° 0 mm 4 m/S 756 mmHg 56%
    03:00 +10°C° 0 mm 5 m/S 756 mmHg 57%
    04:00 +10°C° 0 mm 5 m/S 756 mmHg 56%
    05:00 +10°C° 0 mm 5 m/S 756 mmHg 56%
    06:00 +10°C° 0 mm 5 m/S 756 mmHg 55%
    07:00 +12°C° 0 mm 5 m/S 756 mmHg 52%
    08:00 +14°C° 0 mm 5 m/S 756 mmHg 48%
    09:00 +15°C° 0 mm 5 m/S 756 mmHg 45%
    10:00 +17°C° 0 mm 5 m/S 756 mmHg 40%
    11:00 +19°C° 0 mm 5 m/S 756 mmHg 34%
    12:00 +21°C° 0 mm 5 m/S 756 mmHg 29%
    13:00 +21°C° 0 mm 5 m/S 755 mmHg 29%
    14:00 +22°C° 0 mm 5 m/S 754 mmHg 28%
    15:00 +22°C° 0 mm 6 m/S 753 mmHg 28%
    16:00 +20°C° 0 mm 6 m/S 753 mmHg 36%
    17:00 +17°C° 0 mm 6 m/S 753 mmHg 45%
    18:00 +15°C° 0 mm 6 m/S 753 mmHg 53%
    19:00 +15°C° 0 mm 5 m/S 753 mmHg 54%
    20:00 +15°C° 0 mm 5 m/S 753 mmHg 56%
    21:00 +14°C° 0 mm 5 m/S 753 mmHg 57%
    22:00 +14°C° 0 mm 5 m/S 753 mmHg 57%
    23:00 +14°C° 0 mm 4 m/S 753 mmHg 57%

    übermorgen, 19 Januar, Freitag

    Zeit Temperatur Niederschläge Wind Luftdruck Luftfeuchtigkeit
    00:00 +14°C° 0 mm 4 m/S 753 mmHg 56%
    01:00 +14°C° 0 mm 4 m/S 752 mmHg 58%
    02:00 +13°C° 0 mm 4 m/S 752 mmHg 59%
    03:00 +13°C° 0 mm 4 m/S 752 mmHg 60%
    04:00 +13°C° 0 mm 3 m/S 752 mmHg 62%
    05:00 +13°C° 0 mm 3 m/S 752 mmHg 63%
    06:00 +12°C° 0 mm 3 m/S 752 mmHg 65%
    07:00 +13°C° 0 mm 3 m/S 752 mmHg 65%
    08:00 +14°C° 0 mm 3 m/S 753 mmHg 64%
    09:00 +16°C° 0 mm 2 m/S 753 mmHg 64%
    10:00 +16°C° 0 mm 3 m/S 753 mmHg 66%
    11:00 +15°C° 0 mm 4 m/S 753 mmHg 68%
    12:00 +15°C° 0 mm 4 m/S 753 mmHg 69%
    13:00 +15°C° 0 mm 4 m/S 753 mmHg 72%
    14:00 +15°C° 0 mm 5 m/S 753 mmHg 74%
    15:00 +15°C° 0 mm 5 m/S 753 mmHg 76%
    16:00 +14°C° 0 mm 5 m/S 753 mmHg 81%
    17:00 +14°C° 0 mm 4 m/S 754 mmHg 85%
    18:00 +13°C° 0 mm 4 m/S 754 mmHg 89%
    19:00 +13°C° 0 mm 4 m/S 755 mmHg 90%
    20:00 +13°C° 0 mm 4 m/S 756 mmHg 90%
    21:00 +13°C° 0 mm 4 m/S 756 mmHg 91%
    22:00 +12°C° 0 mm 4 m/S 756 mmHg 91%
    23:00 +12°C° 0 mm 3 m/S 757 mmHg 91%

    20 Januar, Samstag

    Zeit Temperatur Niederschläge Wind Luftdruck Luftfeuchtigkeit
    00:00 +12°C° 0 mm 3 m/S 757 mmHg 91%
    01:00 +11°C° 0 mm 3 m/S 757 mmHg 91%
    02:00 +11°C° 0 mm 3 m/S 757 mmHg 91%
    03:00 +11°C° 0 mm 3 m/S 757 mmHg 91%
    04:00 +11°C° 0,1 mm 3 m/S 758 mmHg 91%
    05:00 +10°C° 0,1 mm 3 m/S 758 mmHg 90%
    06:00 +10°C° 0,1 mm 3 m/S 758 mmHg 89%
    07:00 +11°C° 0,1 mm 3 m/S 758 mmHg 84%
    08:00 +12°C° 0,1 mm 3 m/S 759 mmHg 78%
    09:00 +13°C° 0,1 mm 3 m/S 759 mmHg 73%
    10:00 +14°C° 0 mm 4 m/S 759 mmHg 68%
    11:00 +15°C° 0 mm 4 m/S 759 mmHg 64%
    12:00 +16°C° 0 mm 5 m/S 759 mmHg 60%
    13:00 +16°C° 0 mm 5 m/S 759 mmHg 59%
    14:00 +16°C° 0 mm 5 m/S 758 mmHg 57%
    15:00 +17°C° 0 mm 5 m/S 758 mmHg 55%
    16:00 +15°C° 0 mm 4 m/S 758 mmHg 63%
    17:00 +14°C° 0 mm 4 m/S 758 mmHg 70%
    18:00 +12°C° 0 mm 3 m/S 759 mmHg 77%
    19:00 +12°C° 0 mm 3 m/S 759 mmHg 77%
    20:00 +12°C° 0 mm 3 m/S 759 mmHg 77%
    21:00 +12°C° 0 mm 3 m/S 760 mmHg 77%
    22:00 +12°C° 0 mm 3 m/S 760 mmHg 75%
    23:00 +12°C° 0 mm 4 m/S 760 mmHg 73%

    21 Januar, Sonntag

    Zeit Temperatur Niederschläge Wind Luftdruck Luftfeuchtigkeit
    00:00 +12°C° 0 mm 4 m/S 760 mmHg 71%
    01:00 +12°C° 0 mm 4 m/S 760 mmHg 70%
    02:00 +11°C° 0 mm 4 m/S 760 mmHg 68%
    03:00 +11°C° 0 mm 4 m/S 759 mmHg 67%
    04:00 +11°C° 0 mm 4 m/S 760 mmHg 64%
    05:00 +11°C° 0 mm 4 m/S 760 mmHg 61%
    06:00 +11°C° 0 mm 4 m/S 760 mmHg 58%
    07:00 +12°C° 0 mm 4 m/S 760 mmHg 53%
    08:00 +14°C° 0 mm 4 m/S 761 mmHg 48%
    09:00 +15°C° 0 mm 4 m/S 761 mmHg 43%
    10:00 +17°C° 0 mm 4 m/S 761 mmHg 40%
    11:00 +19°C° 0 mm 4 m/S 761 mmHg 38%
    12:00 +20°C° 0 mm 5 m/S 761 mmHg 35%
    13:00 +20°C° 0 mm 4 m/S 761 mmHg 36%
    14:00 +20°C° 0 mm 4 m/S 760 mmHg 37%
    15:00 +20°C° 0 mm 4 m/S 760 mmHg 37%
    16:00 +18°C° 0 mm 3 m/S 760 mmHg 45%
    17:00 +16°C° 0 mm 3 m/S 760 mmHg 53%
    18:00 +14°C° 0 mm 2 m/S 761 mmHg 62%
    19:00 +14°C° 0 mm 2 m/S 761 mmHg 61%
    20:00 +14°C° 0 mm 2 m/S 761 mmHg 60%
    21:00 +14°C° 0 mm 2 m/S 761 mmHg 59%
    22:00 +13°C° 0 mm 2 m/S 761 mmHg 57%
    23:00 +13°C° 0 mm 2 m/S 761 mmHg 56%

    22 Januar, Montag

    Zeit Temperatur Niederschläge Wind Luftdruck Luftfeuchtigkeit
    00:00 +13°C° 0 mm 2 m/S 761 mmHg 55%
    01:00 +13°C° 0 mm 2 m/S 761 mmHg 55%
    02:00 +13°C° 0 mm 2 m/S 761 mmHg 56%
    03:00 +13°C° 0 mm 2 m/S 761 mmHg 56%
    04:00 +12°C° 0 mm 2 m/S 761 mmHg 58%
    05:00 +12°C° 0 mm 1 m/S 761 mmHg 60%
    06:00 +12°C° 0 mm 1 m/S 761 mmHg 62%
    07:00 +14°C° 0 mm 1 m/S 761 mmHg 57%
    08:00 +16°C° 0 mm 1 m/S 761 mmHg 51%
    09:00 +19°C° 0 mm 1 m/S 761 mmHg 46%
    10:00 +20°C° 0 mm 1 m/S 761 mmHg 42%
    11:00 +21°C° 0 mm 1 m/S 761 mmHg 38%
    12:00 +21°C° 0 mm 0 m/S 761 mmHg 34%
    13:00 +23°C° 0 mm 1 m/S 760 mmHg 33%
    14:00 +23°C° 0 mm 1 m/S 760 mmHg 33%
    15:00 +23°C° 0 mm 1 m/S 759 mmHg 33%
    16:00 +21°C° 0 mm 1 m/S 760 mmHg 38%
    17:00 +19°C° 0 mm 1 m/S 760 mmHg 44%
    18:00 +18°C° 0 mm 1 m/S 760 mmHg 49%
    19:00 +16°C° 0 mm 1 m/S 760 mmHg 51%
    20:00 +15°C° 0 mm 1 m/S 760 mmHg 53%
    21:00 +15°C° 0 mm 1 m/S 760 mmHg 55%
    22:00 +15°C° 0 mm 1 m/S 760 mmHg 55%
    23:00 +14°C° 0 mm 1 m/S 760 mmHg 56%
    Mehr zeigen